Location: Athens-Covington-Pier
(33.9360°N, 83.4200°W)
Time: 09:26:01
(UTC-04:00)

Envisat - Visible Passes

Search period start: 21 October 2019 00:00
Search period end: 31 October 2019 00:00
Orbit: 764 x 766 km, 98.1° (Epoch: 21 October)

Date Brightness Start Highest point End Pass type
(mag) Time Alt. Az. Time Alt. Az. Time Alt. Az.
21 Oct 3.0 19:31:48 10° SSE 19:36:49 67° ENE 19:41:52 10° N visible
21 Oct 6.2 21:15:00 10° WSW 21:16:14 11° W 21:17:28 10° WNW visible
22 Oct 5.1 20:34:55 10° SSW 20:39:10 27° W 20:43:27 10° NW visible
23 Oct 6.5 07:10:15 10° ENE 07:12:29 13° E 07:14:43 10° ESE visible
23 Oct 3.4 19:57:16 10° S 20:02:17 66° WSW 20:07:21 10° NNW visible
24 Oct 3.1 19:20:42 10° SSE 19:25:36 51° ENE 19:30:31 10° N visible
24 Oct 6.0 21:02:06 10° SW 21:04:52 15° W 21:07:37 10° WNW visible
25 Oct 4.6 20:23:15 10° SSW 20:27:51 35° W 20:32:29 10° NNW visible
26 Oct 3.0 19:45:58 10° SSE 19:51:02 86° WSW 19:56:08 10° NNW visible
27 Oct 3.4 19:09:42 10° SE 19:14:23 40° ENE 19:19:06 10° N visible
27 Oct 5.6 20:49:57 10° SW 20:53:30 19° W 20:57:04 10° NW visible
28 Oct 4.1 20:11:43 10° S 20:16:33 45° W 20:21:25 10° NNW visible
29 Oct 2.9 19:34:44 10° SSE 19:39:47 74° ENE 19:44:51 10° N visible
30 Oct 3.7 18:58:47 10° SE 19:03:12 31° ENE 19:07:37 10° N visible
30 Oct 5.2 20:38:03 10° SSW 20:42:09 25° W 20:46:17 10° NW visible
